[Iaude] MPEC J56: 2017 CR32 [a=1.39,e=0.23,i=11.4,H=22.2]

mpec at marsden.cfa.harvard.edu mpec at marsden.cfa.harvard.edu
Tue May 12 11:01:28 EDT 2020


M.P.E.C. 2020-J56                                  Issued 2020 May 12, 15:00 UT

     The Minor Planet Electronic Circulars contain information on unusual
         minor planets and routine data on comets.  They are published
    on behalf of Division F of the International Astronomical Union by the
          Minor Planet Center, Smithsonian Astrophysical Observatory,
                          Cambridge, MA 02138, U.S.A.

             Prepared using the Tamkin Foundation Computer Network

                              MPC at CFA.HARVARD.EDU
            URL https://www.minorplanetcenter.net/    ISSN 1523-6714

                                   2017 CR32                                    


                           Revision to MPEC 2017-D10                            

Additional Observations:
     K17C32R  C2019 09 24.50563601 03 19.112+09 00 55.20         23.51GVEJ056T12
     K17C32R  C2019 09 24.51314201 03 18.248+09 00 55.71         23.60GVEJ056T12
     K17C32R  C2019 09 24.52159801 03 17.267+09 00 56.39         23.60GVEJ056T12
     K17C32R  C2019 09 25.46224701 01 32.180+09 02 05.88         23.42GVEJ056T12
     K17C32R  C2019 09 25.46553301 01 31.782+09 02 06.14         23.44GVEJ056T12

Observer details:
T12 Mauna Kea-UH/Tholen NEO Follow-Up (2.24-m).  Observers D. J. Tholen, M.-T. 
   Hui, D. Hung.  Measurer D. J. Tholen.  2.24-m f/10.1 reflector + CCD.

First and last observations above in comparison with prediction:
Residuals in seconds of arc, reference and Delta-T
190924 T12 46.1+ 30.2+    190925 T12 46.2+ 30.5+    MPO409580   +0.02 days

Orbital elements:
2017 CR32                                                Earth MOID = 0.0728 AU
Epoch 2020 May 31.0 TT = JDT 2459000.5                  Veres
M 347.61573              (2000.0)            P               Q
n   0.60468159     Peri.  173.59776     -0.99867491     -0.04993642
a   1.3850057      Node     3.61065     +0.03390981     -0.82037107
e   0.2282938      Incl.   11.39361     +0.03871104     -0.56964696
P   1.63           H   22.2           G   0.15           U   0
Residuals in seconds of arc
170214 F51  0.1+  0.0     170311 160  0.0   0.5+    170321 T08  0.2+  0.2+
170214 F51  0.1+  0.0     170311 160  0.4-  0.4+    170322 H21  0.1+  0.1-
170214 F51  0.1+  0.1+    170314 160 (0.2+  2.6+)   170322 H21  0.1+  0.1-
170214 F51  0.1+  0.0     170314 160  0.8+  0.3+    170322 H21  0.1+  0.0
170214 F51  0.1+  0.0     170314 160  0.1+  0.7+    170322 H21  0.1-  0.1-
170214 F51  0.1+  0.0     170314 511  0.1-  0.0     170322 H21  0.1-  0.1-
170214 F51  0.1+  0.0     170314 511  0.2-  0.0     170322 H21  0.2+  0.1-
170215 H36  0.6+  0.9-    170314 511  0.3-  0.4-    170322 H21  0.0   0.1-
170215 H36  0.0   1.1-    170314 511  0.2-  0.2-    170324 H45  0.0   0.0
170215 291  0.3+  0.3+    170315 511  0.0   0.7+    170324 H45  0.2-  0.3+
170215 291  0.1+  0.1-    170315 511  0.1-  0.4+    170324 H45  0.0   0.0
170215 291  0.3+  0.7+    170315 511  0.1-  0.1+    170324 H45  0.2-  0.4-
170215 H36  0.1-  0.2+    170315 511  0.1+  0.4+    170324 H45  0.0   0.3+
170215 H36  0.0   0.2+    170315 511  0.2-  0.1-    170324 H45  0.1-  0.3+
170215 595  0.1+  0.2-    170315 H21  0.2-  1.4-    170324 H45  0.1+  0.1-
170215 595  0.1+  0.2+    170315 H21  0.2-  1.3-    170324 H45  0.1-  0.0
170215 595  0.2+  0.0     170315 H21  0.4-  1.2-    170324 T05  0.2-  0.1-
170216 703  0.2-  0.1+    170315 H21  0.2-  1.1-    170324 T05  0.5-  0.1-
170216 703 (1.6+  0.5+)   170315 H21  0.2-  1.2-    170324 T05  0.3-  0.0
170216 703  0.5-  0.3-    170315 H21  0.5-  1.2-    170324 T05  0.0   0.2+
170216 703 (1.6+  0.4-)   170315 H21  0.3-  1.1-    170324 T05  0.0   0.3+
170216 H21  0.0   0.1+    170315 H21  0.2-  1.2-    170324 T05  0.1-  0.5-
170216 H21  0.3-  0.0     170315 H21  0.3-  1.2-    170324 T05  0.3+  0.3+
170216 H21  0.1-  0.0     170315 H21  0.1-  0.4-    170324 T05  0.0   0.3+
170216 C42  1.3-  0.0     170315 H21  0.1+  0.1-    170325 703  0.4+  0.5+
170216 C42 (2.2-  0.8+)   170315 H21  0.2-  0.4-    170325 703  0.1+  0.3+
170216 C42  0.6+  0.8+    170315 H21  0.1-  0.4-    170325 703  0.2+  0.0
170216 246 (1.9-  2.0+)   170315 H21  0.2-  0.3-    170325 703  0.1+  0.3+
170216 246  1.1-  0.3+    170315 H21  0.0   0.2-    170325 T08  0.2-  0.1+
170216 246  1.2-  0.7-    170315 H21  0.2-  0.2-    170325 T08  0.2-  0.3+
170216 246  0.2-  0.2-    170315 H21  0.1-  0.2-    170325 T08  0.1-  0.1-
170216 246  0.2+  0.2+    170315 H21  0.1-  0.3-    170325 T08  0.7+  0.3+
170216 246  0.0   0.2+    170315 H21  0.0   0.2-    170325 K14  0.5+  0.4-
170216 246  0.5-  0.4+    170315 H21  0.1-  0.2-    170325 K14  0.0   0.1-
170216 246  0.7-  0.9-    170315 H21  0.1+  0.3-    170325 K14  0.1+  0.1+
170217 I93  0.2+  0.1-    170315 H21  0.1+  0.3-    170325 K14  0.6-  0.6-
170217 I93  0.1-  0.0     170315 H21  0.1+  0.3-    170325 K14  0.4-  0.0
170217 I93  0.0   0.1+    170315 H21  0.1+  0.2-    170325 K14  0.2+  0.5-
170221 I15 (1.8+  0.5+)   170315 Z80  0.1+  0.2+    170325 Z80  0.8+  0.1-
170221 I15  0.0   0.1+    170315 Z80  0.4+  0.3-    170325 Z80  0.0   0.3-
170221 I15  0.4+  0.7-    170315 Z80  0.6+  0.5+    170325 Z80  0.7+  0.6-
170223 H21  0.3-  0.0     170317 160  0.0   0.1+    170325 Z80  0.7+  0.2-
170223 H21  0.2-  0.6-    170317 160  0.0   0.3+    170325 Z80  0.2-  0.6-
170223 H21  0.5-  1.1-    170317 160  0.4+  0.6+    170325 Z80  0.7+  0.2-
170225 703  0.8+  0.5+    170317 703  0.2+  0.2+    170326 703  0.0   0.0
170225 703  0.2-  0.0     170317 703  0.1+  0.4+    170326 703  0.1+  0.0
170225 703  0.2+  0.4+    170317 703  0.5+  0.4+    170326 703  0.1+  0.2+
170225 703  0.3+  0.5-    170317 703  0.1+  0.1+    170326 703  0.1+  0.3+
170227 705  0.0   0.1-    170317 T05  0.0   0.1+    170326 G34  0.1-  0.2-
170227 705  0.3+  0.3+    170317 T05  0.1-  0.1+    170326 G34  0.4+  0.7+
170228 G40  0.6-  0.3+    170317 T05  0.3-  0.7+    170326 G34  0.2+  0.1-
170228 G40  0.5-  0.2-    170317 691  0.0   0.3+    170326 G34  0.5+  0.1+
170228 G40  0.1-  0.4-    170317 691  0.2+  0.3+    170327 T05  0.0   0.6+
170228 G40  0.4-  0.0     170317 T05  0.4+  0.5+    170327 T05  0.1-  0.1-
170302 204  0.1-  0.0     170317 691  0.0   0.3+    170327 T05  0.1-  0.7-
170302 204  0.1-  0.2-    170319 703  0.2+  0.2+    170327 T05  0.2-  0.1-
170302 204  0.2+  0.1-    170319 703  0.1+  0.1+    170328 H45  0.0   0.2-
170304 H45  0.1-  0.0     170319 703  0.2+  0.1-    170328 H45  0.2+  0.4-
170304 H45  0.3-  0.4+    170319 703  0.2+  0.2-    170328 H45  0.2+  0.3+
170304 H45  0.3-  0.2-    170320 703  0.4+  0.3+    170328 H45  0.1+  0.0
170304 H45  0.4-  0.4+    170320 703  0.2+  0.0     170328 H45  0.0   0.2+
170304 H45  0.1-  0.2+    170320 703  0.1+  0.2+    170328 H45  0.0   0.0
170304 H45  0.2+  0.1+    170320 703  0.2+  0.0     170328 107  0.6-  0.0
170305 W25  0.2-  0.4+    170320 T05  0.2+  0.1-    170328 107  0.6+  0.5+
170305 W25  0.1+  0.4+    170320 T08  0.0   0.0     170328 107  0.3+  0.4+
170306 T05  0.3+  0.1-    170320 T05  0.4+  0.3-    170329 703  0.9-  0.2-
170306 T05  1.3-  0.0     170320 T08  0.4+  0.5+    170329 703  0.0   0.1-
170306 T05  0.0   0.5+    170320 T05  0.0   0.1-    170329 703  0.3+  0.0
170306 T05  0.5-  0.5+    170320 T08  0.0   0.0     170329 703  0.5-  1.2+
170306 T05  0.4+  1.4+    170320 T05  0.2+  0.1-    170331 T05  0.4-  1.0+
170307 160  0.2+  1.2+    170320 T08  0.4-  0.1+    170331 T05  0.5+  0.3+
170307 160  0.4+  1.0+    170320 K14  0.1-  0.4-    170331 T05  0.2-  1.2+
170307 160 (1.6+  0.8+)   170320 K14  0.2+  0.3-    170331 T05  0.0   0.3-
170308 H45  0.1+  0.5+    170320 J69  0.1-  0.5-    170401 F51  0.1-  0.1+
170308 H45  0.4-  0.4+    170320 J69  0.1+  0.4-    170401 F51  0.0   0.2+
170308 H45  0.2-  0.1-    170320 J69  0.3-  0.5-    170401 F51  0.0   0.2+
170308 H45  0.2-  0.1+    170320 J69  0.0   0.4-    170401 F51  0.0   0.2+
170308 H45  0.1-  0.2+    170321 Z80  0.1-  0.0     170402 T08  0.1+  1.0+
170308 H45  0.3-  0.1+    170321 Z80  0.3-  0.7-    170402 T08  0.5-  0.7-
170309 H21  0.3+  0.1+    170321 Z80  0.5+  0.2-    170402 T08  0.4+  0.3-
170309 H21  0.3+  0.1+    170321 Z80  0.1+  0.3-    170402 T08  0.5-  0.8+
170309 H21  0.3+  0.0     170321 G48  0.3-  0.1-    170405 F51  0.1-  0.1-
170309 H21  0.1+  0.0     170321 G48  0.4+  0.5-    170405 F51  0.1-  0.3-
170309 H21  0.2+  0.2+    170321 G48  0.3-  0.1-    170405 F51  0.2-  0.1-
170309 H21  0.1-  0.2+    170321 H45  0.1+  0.1+    170405 F51  0.1-  0.1-
170309 H21  0.0   0.1+    170321 H45  0.1-  0.0     170405 F51  0.0   0.0
170309 H21  0.2+  0.0     170321 H45  0.1-  0.2-    170405 F51  0.1-  0.4-
170309 G96  0.3+  0.3+    170321 H45  0.0   0.2+    170405 F51  0.1-  0.1-
170309 G96  0.4+  0.1-    170321 H45  0.2+  0.3+    170405 F51  0.1-  0.0
170309 G96  0.4+  0.0     170321 H45  0.2-  0.0     190924 T12  0.0   0.0
170309 G96  0.2+  0.2-    170321 H45  0.1-  0.0     190924 T12  0.1+  0.1-
170310 K74  0.5-  0.9+    170321 H45  0.1-  0.0     190924 T12  0.0   0.0
170310 K74  0.3-  0.3+    170321 T08  0.6+  0.6-    190925 T12  0.1+  0.0
170310 K74  0.3-  0.1+    170321 T08  0.2+  0.4+    190925 T12  0.1-  0.0
170311 160  0.2+  0.6+    170321 T08  0.1+  0.1+

Ephemeris:
2017 CR32                a,e,i = 1.39, 0.23, 11                  q = 1.0688
Date    TT    R. A. (2000) Decl.     Delta      r    Elong.  Phase     V
2020 04 12    04 39 59.4 +30 31 54   1.5354  1.1920    50.9    40.7    25.1
...
2020 04 27    05 37 08.8 +30 31 23   1.5333  1.1487    48.5    41.0    25.0
...
2020 05 05    06 08 42.7 +29 54 01   1.5290  1.1284    47.5    41.3    25.0
...
2020 05 11    06 32 37.0 +29 07 38   1.5250  1.1148    46.9    41.5    25.0
2020 05 12    06 36 36.5 +28 58 20   1.5242  1.1126    46.9    41.5    25.0
2020 05 13    06 40 36.1 +28 48 36   1.5235  1.1105    46.8    41.5    25.0
...
2020 05 19    07 04 32.7 +27 40 46   1.5189  1.0990    46.3    41.7    24.9
...
2020 05 27    07 36 16.2 +25 45 37   1.5128  1.0862    45.8    42.0    24.9
...
2020 06 11    08 34 20.8 +20 58 59   1.5032  1.0715    45.4    42.5    24.9

A. U. Tomatic                (C) Copyright 2020 MPC           M.P.E.C. 2020-J56




More information about the Iaude mailing list